[keps] orb10112.amsat
Ray Hoad
ray.hoad at mypbmail.com
Thu Apr 22 19:42:10 PDT 2010
SB KEPS @ AMSAT $ORB10112.O
Orbital Elements 10112.OSCAR
HR AMSAT ORBITAL ELEMENTS FOR OSCAR SATELLITES
FROM WA5QGD FORT WORTH,TX April 22, 2010
Send Subscribe/unsubscribe to KEPS at http://www.amsat.org/mailman/listinfo/keps
BID: ORB10112.O
TO ALL RADIO AMATEURS BT
Satellite: AO-07
Catalog number: 07530
Epoch time: 10111.62005048
Element set: 757
Inclination: 101.4036 deg
RA of node: 129.6767 deg
Eccentricity: 0.0012138
Arg of perigee: 025.9972 deg
Mean anomaly: 334.1707 deg
Mean motion: 12.53578257 rev/day
Decay rate: -2.7e-07 rev/day^2
Epoch rev: 62136
Checksum: 281
Satellite: FO-29
Catalog number: 24278
Epoch time: 10111.60429324
Element set: 293
Inclination: 098.5144 deg
RA of node: 308.5501 deg
Eccentricity: 0.0349754
Arg of perigee: 270.6884 deg
Mean anomaly: 085.4199 deg
Mean motion: 13.52949111 rev/day
Decay rate: -4.3e-07 rev/day^2
Epoch rev: 67545
Checksum: 320
Satellite: SO-33
Catalog number: 25509
Epoch time: 10112.27437679
Element set: 694
Inclination: 031.4304 deg
RA of node: 104.7063 deg
Eccentricity: 0.0354235
Arg of perigee: 161.0901 deg
Mean anomaly: 200.3367 deg
Mean motion: 14.28303140 rev/day
Decay rate: 2.52e-06 rev/day^2
Epoch rev: 60005
Checksum: 249
Satellite: RS-22
Catalog number: 27939
Epoch time: 10112.67235539
Element set: 116
Inclination: 097.9010 deg
RA of node: 340.4919 deg
Eccentricity: 0.0012500
Arg of perigee: 233.2978 deg
Mean anomaly: 126.7069 deg
Mean motion: 14.63407377 rev/day
Decay rate: 1.40e-06 rev/day^2
Epoch rev: 35083
Checksum: 292
Satellite: VO-52
Catalog number: 28650
Epoch time: 10112.28658941
Element set: 486
Inclination: 097.6966 deg
RA of node: 167.8875 deg
Eccentricity: 0.0028384
Arg of perigee: 099.2497 deg
Mean anomaly: 261.1906 deg
Mean motion: 14.81726968 rev/day
Decay rate: -3.3e-07 rev/day^2
Epoch rev: 26841
Checksum: 360
Satellite: SO-67
Catalog number: 35870
Epoch time: 10112.79428505
Element set: 656
Inclination: 097.3360 deg
RA of node: 163.3653 deg
Eccentricity: 0.0007323
Arg of perigee: 247.8992 deg
Mean anomaly: 224.7220 deg
Mean motion: 15.22474852 rev/day
Decay rate: 7.46e-06 rev/day^2
Epoch rev: 3303
Checksum: 304
Satellite: HO-68
Catalog number: 36122
Epoch time: 10112.68622619
Element set: 239
Inclination: 100.4733 deg
RA of node: 173.6675 deg
Eccentricity: 0.0007812
Arg of perigee: 100.9409 deg
Mean anomaly: 259.2577 deg
Mean motion: 13.16280338 rev/day
Decay rate: -4.5e-07 rev/day^2
Epoch rev: 1691
Checksum: 291
/EX
SB KEPS @ AMSAT $ORB10112.D
Orbital Elements 10112.MICROS
HR AMSAT ORBITAL ELEMENTS FOR THE MICROSATS
FROM WA5QGD FORT WORTH,TX April 22, 2010
Send Subscribe/unsubscribe to KEPS at http://www.amsat.org/mailman/listinfo/keps
BID: ORB10112.D
TO ALL RADIO AMATEURS BT
Satellite: UO-11
Catalog number: 14781
Epoch time: 10111.22353581
Element set: 222
Inclination: 098.0596 deg
RA of node: 162.7756 deg
Eccentricity: 0.0010190
Arg of perigee: 063.0983 deg
Mean anomaly: 297.1268 deg
Mean motion: 14.79790710 rev/day
Decay rate: -1.69e-06 rev/day^2
Epoch rev: 40338
Checksum: 298
Satellite: AO-16
Catalog number: 20439
Epoch time: 10111.93599376
Element set: 876
Inclination: 098.3279 deg
RA of node: 072.0721 deg
Eccentricity: 0.0010713
Arg of perigee: 339.1909 deg
Mean anomaly: 020.8842 deg
Mean motion: 14.31857347 rev/day
Decay rate: 1.2e-07 rev/day^2
Epoch rev: 5733
Checksum: 303
Satellite: LO-19
Catalog number: 20442
Epoch time: 10111.94276312
Element set: 786
Inclination: 098.2886 deg
RA of node: 078.1094 deg
Eccentricity: 0.0011555
Arg of perigee: 333.3821 deg
Mean anomaly: 026.6766 deg
Mean motion: 14.32089195 rev/day
Decay rate: -5.2e-07 rev/day^2
Epoch rev: 5750
Checksum: 302
Satellite: AO-27
Catalog number: 22825
Epoch time: 10112.84960740
Element set: 510
Inclination: 098.4806 deg
RA of node: 062.2436 deg
Eccentricity: 0.0009356
Arg of perigee: 074.1259 deg
Mean anomaly: 286.0960 deg
Mean motion: 14.29294101 rev/day
Decay rate: -2.3e-07 rev/day^2
Epoch rev: 86414
Checksum: 290
Satellite: IO-26
Catalog number: 22826
Epoch time: 10112.78497576
Element set: 248
Inclination: 098.4753 deg
RA of node: 062.8035 deg
Eccentricity: 0.0009925
Arg of perigee: 069.3631 deg
Mean anomaly: 290.8611 deg
Mean motion: 14.29549674 rev/day
Decay rate: 2.2e-07 rev/day^2
Epoch rev: 86424
Checksum: 330
Satellite: GO-32
Catalog number: 25397
Epoch time: 10112.41899798
Element set: 166
Inclination: 098.3136 deg
RA of node: 122.9397 deg
Eccentricity: 0.0002267
Arg of perigee: 079.6920 deg
Mean anomaly: 280.4533 deg
Mean motion: 14.23176739 rev/day
Decay rate: 1.40e-06 rev/day^2
Epoch rev: 61211
Checksum: 311
Satellite: NO-44
Catalog number: 26931
Epoch time: 10112.09564026
Element set: 439
Inclination: 067.0534 deg
RA of node: 348.4915 deg
Eccentricity: 0.0005942
Arg of perigee: 264.3956 deg
Mean anomaly: 095.6494 deg
Mean motion: 14.29593212 rev/day
Decay rate: 1.10e-06 rev/day^2
Epoch rev: 44673
Checksum: 307
Satellite: SO-50
Catalog number: 27607
Epoch time: 10112.62134660
Element set: 156
Inclination: 064.5568 deg
RA of node: 165.2900 deg
Eccentricity: 0.0034858
Arg of perigee: 103.2559 deg
Mean anomaly: 257.2447 deg
Mean motion: 14.71528671 rev/day
Decay rate: -3.0e-07 rev/day^2
Epoch rev: 39420
Checksum: 288
Satellite: CO-55
Catalog number: 27844
Epoch time: 10112.03505625
Element set: 830
Inclination: 098.7101 deg
RA of node: 121.8137 deg
Eccentricity: 0.0010046
Arg of perigee: 338.7968 deg
Mean anomaly: 021.2785 deg
Mean motion: 14.20700470 rev/day
Decay rate: 7.4e-07 rev/day^2
Epoch rev: 35311
Checksum: 266
Satellite: CO-57
Catalog number: 27848
Epoch time: 10111.49295591
Element set: 779
Inclination: 098.7144 deg
RA of node: 120.3640 deg
Eccentricity: 0.0009865
Arg of perigee: 344.9078 deg
Mean anomaly: 015.1814 deg
Mean motion: 14.20493551 rev/day
Decay rate: 4.1e-07 rev/day^2
Epoch rev: 35299
Checksum: 322
Satellite: AO-51
Catalog number: 28375
Epoch time: 10111.89238566
Element set: 657
Inclination: 098.0609 deg
RA of node: 108.5997 deg
Eccentricity: 0.0083262
Arg of perigee: 268.8503 deg
Mean anomaly: 090.3147 deg
Mean motion: 14.40680553 rev/day
Decay rate: 4.7e-07 rev/day^2
Epoch rev: 30540
Checksum: 318
Satellite: GENESAT1
Catalog number: 29655
Epoch time: 10112.87864790
Element set: 25
Inclination: 040.0182 deg
RA of node: 027.2356 deg
Eccentricity: 0.0009310
Arg of perigee: 283.3549 deg
Mean anomaly: 076.6333 deg
Mean motion: 15.82990673 rev/day
Decay rate: 8.2919e-04 rev/day^2
Epoch rev: 19119
Checksum: 311
Satellite: CP3
Catalog number: 31129
Epoch time: 10111.09842276
Element set: 558
Inclination: 097.9439 deg
RA of node: 153.7093 deg
Eccentricity: 0.0103606
Arg of perigee: 051.3912 deg
Mean anomaly: 309.6615 deg
Mean motion: 14.52241386 rev/day
Decay rate: 7.7e-07 rev/day^2
Epoch rev: 15957
Checksum: 302
Satellite: CO-65
Catalog number: 32785
Epoch time: 10112.31449526
Element set: 661
Inclination: 097.8992 deg
RA of node: 178.0014 deg
Eccentricity: 0.0016108
Arg of perigee: 104.6797 deg
Mean anomaly: 255.6140 deg
Mean motion: 14.81631723 rev/day
Decay rate: -2.4e-07 rev/day^2
Epoch rev: 10721
Checksum: 291
Satellite: KKS-1
Catalog number: 33493
Epoch time: 10112.71690487
Element set: 412
Inclination: 098.0782 deg
RA of node: 231.7559 deg
Eccentricity: 0.0019133
Arg of perigee: 323.7318 deg
Mean anomaly: 036.2601 deg
Mean motion: 14.80949591 rev/day
Decay rate: 5.17e-06 rev/day^2
Epoch rev: 6727
Checksum: 300
Satellite: SOHLA-1
Catalog number: 33496
Epoch time: 10112.18962228
Element set: 83
Inclination: 098.0522 deg
RA of node: 222.0055 deg
Eccentricity: 0.0007142
Arg of perigee: 029.9282 deg
Mean anomaly: 330.2333 deg
Mean motion: 14.69486423 rev/day
Decay rate: 6.4e-07 rev/day^2
Epoch rev: 6665
Checksum: 276
/EX
SB KEPS @ AMSAT $ORB10112.W
Orbital Elements 10112.WEATHER
HR AMSAT ORBITAL ELEMENTS FOR WEATHER SATELLITES
FROM WA5QGD FORT WORTH,TX April 22, 2010
Send Subscribe/unsubscribe to KEPS at http://www.amsat.org/mailman/listinfo/keps
BID: ORB10112.W
TO ALL RADIO AMATEURS BT
Satellite: NOAA-10
Catalog number: 16969
Epoch time: 10112.14592140
Element set: 39
Inclination: 098.6605 deg
RA of node: 141.6282 deg
Eccentricity: 0.0012658
Arg of perigee: 019.7755 deg
Mean anomaly: 340.3915 deg
Mean motion: 14.27412906 rev/day
Decay rate: -8.2e-07 rev/day^2
Epoch rev: 22758
Checksum: 296
Satellite: NOAA-11
Catalog number: 19531
Epoch time: 10112.30497748
Element set: 51
Inclination: 098.7670 deg
RA of node: 202.2796 deg
Eccentricity: 0.0011093
Arg of perigee: 311.3627 deg
Mean anomaly: 048.6617 deg
Mean motion: 14.14922372 rev/day
Decay rate: 9.1e-07 rev/day^2
Epoch rev: 11323
Checksum: 274
Satellite: NOAA-12
Catalog number: 21263
Epoch time: 10112.41446647
Element set: 537
Inclination: 098.7662 deg
RA of node: 125.5791 deg
Eccentricity: 0.0012041
Arg of perigee: 333.3584 deg
Mean anomaly: 026.6975 deg
Mean motion: 14.25629726 rev/day
Decay rate: 1.04e-06 rev/day^2
Epoch rev: 98445
Checksum: 302
Satellite: MET-3/5
Catalog number: 21655
Epoch time: 10111.65939722
Element set: 792
Inclination: 082.5595 deg
RA of node: 348.5796 deg
Eccentricity: 0.0014441
Arg of perigee: 126.5814 deg
Mean anomaly: 233.6603 deg
Mean motion: 13.17021868 rev/day
Decay rate: 5.1e-07 rev/day^2
Epoch rev: 89823
Checksum: 316
Satellite: MET-2/21
Catalog number: 22782
Epoch time: 10112.75469577
Element set: 755
Inclination: 082.5450 deg
RA of node: 296.4251 deg
Eccentricity: 0.0021903
Arg of perigee: 194.4716 deg
Mean anomaly: 165.5824 deg
Mean motion: 13.83643401 rev/day
Decay rate: 2.0e-07 rev/day^2
Epoch rev: 84041
Checksum: 292
Satellite: OKEAN-4
Catalog number: 23317
Epoch time: 10112.85242553
Element set: 211
Inclination: 082.5414 deg
RA of node: 045.5035 deg
Eccentricity: 0.0024009
Arg of perigee: 065.6949 deg
Mean anomaly: 294.6786 deg
Mean motion: 14.82802827 rev/day
Decay rate: 3.08e-06 rev/day^2
Epoch rev: 83825
Checksum: 294
